Regional Weather Roundup
Issued by NWS

Home | Current Version | Previous Version | Graphics & Text | Print | Product List | Glossary On
Versions: 1 2 3 4 5 6 7 8 9 10 11 12 13 14 15 16 17 18 19 20 21 22 23 24 25 26 27 28 29 30 31 32 33 34 35 36 37 38 39 40 41 42 43 44 45 46 47 48 49 50
000
ASUS43 KBIS 012101
RWRND

NORTH DAKOTA REGIONAL WEATHER ROUNDUP
NATIONAL WEATHER SERVICE BISMARCK ND
400 PM CDT WED APR 01 2015

NOTE: "FAIR" INDICATES FEW OR NO CLOUDS BELOW 12,000 FEET WITH NO
SIGNIFICANT WEATHER AND/OR OBSTRUCTIONS TO VISIBILITY.


NDZ001>003-009>011-017-012200-
NORTHWEST NORTH DAKOTA

CITY           SKY/WX    TMP DP  RH WIND       PRES   REMARKS
WILLISTON      CLOUDY    54  23  30 W23G37    29.64S
MINOT          LGT RAIN  54  33  45 W29G39    29.55R
MINOT AFB      PTSUNNY   53  37  54 NW29G39   29.53R
$$

NDZ018>021-031>035-040>046-012200-
SOUTHWEST NORTH DAKOTA

CITY           SKY/WX    TMP DP  RH WIND       PRES   REMARKS
BISMARCK       SUNNY     63  26  24 NW21G36   29.58R
DICKINSON      MOSUNNY   55  24  30 W32G43    29.63S
GARRISON         N/A     57  32  38 NW31G45   29.56R
HETTINGER ARPT PTSUNNY   57  22  25 NW29G41   29.69R
$$

NDZ004>008-012>016-024-026-027-054-012200-
NORTHEAST NORTH DAKOTA

CITY           SKY/WX    TMP DP  RH WIND       PRES   REMARKS
GRAND FORKS    CLOUDY    64  39  39 NW22G28   29.38R
GRND FRKS AFB  CLOUDY    61  41  47 W23G32    29.39R
DEVILS LAKE    CLOUDY    57  43  58 NW29G37   29.43S
$$

NDZ022-023-025-028>030-036>039-047>053-012200-
SOUTHEAST NORTH DAKOTA

CITY           SKY/WX    TMP DP  RH WIND       PRES   REMARKS
FARGO          MOSUNNY   69  36  29 W30G41    29.38R
JAMESTOWN      CLOUDY    64  33  31 W31G38    29.47R
$$




USA.gov is the U.S. government's official web portal to all federal, state and local government web resources and services.